Wind_Speed
19 19 19 20 20 20 20 20 20 20 20 20 20 20 20 20 20 20 20 20 19 19 19 19 19 19 18 18 18 18 19 18 17 17 16 17 17 18 18 18 18 18 18
20 21 21 21 22 22 21 21 21 20 20 20 20 20 20 20 20 20 20 20 20 19 19 19 19 19 18 18 18 18 19 19 19 18 18 18 18 18 19 19 19 18 18
21 22 22 23 23 23 23 23 22 22 21 21 21 21 20 20 20 20 20 20 20 20 19 19 20 20 19 19 19 19 19 19 19 19 19 19 19 19 19 19 20 19 18
22 23 23 24 24 24 24 23 23 23 22 22 22 22 22 22 21 20 20 20 20 20 20 20 20 20 20 20 20 20 19 19 20 20 20 20 20 20 20 20 20 20 20
23 23 24 25 25 25 25 25 25 24 24 24 23 23 22 22 22 22 22 21 21 21 21 22 22 21 21 21 21 21 21 20 21 20 21 21 21 21 21 21 20 21 21
25 24 25 25 26 26 26 26 26 26 25 25 25 24 24 23 23 24 24 23 23 23 23 23 23 23 22 22 22 23 22 22 21 22 21 21 22 21 21 21 21 21 21
26 26 26 27 27 27 27 27 26 26 26 26 26 26 25 25 25 25 25 25 25 24 24 24 23 23 23 23 23 23 23 23 23 23 22 22 22 22 22 22 23 23 22
28 28 28 28 28 28 28 27 27 27 27 28 28 28 27 27 27 26 26 26 26 26 25 25 25 25 24 25 25 25 24 24 24 24 23 22 23 23 23 24 24 24 24
29 30 30 30 30 29 28 28 28 29 29 29 29 29 29 29 29 28 28 28 27 27 27 27 27 27 26 27 26 26 26 26 26 26 25 25 24 24 24 25 25 25 25
30 30 30 30 30 29 29 29 30 30 30 30 30 30 30 30 30 29 29 29 28 28 28 28 28 28 28 28 28 28 28 28 27 27 27 27 26 26 26 25 26 27 26
30 30 29 29 29 29 29 30 30 30 30 30 31 31 31 31 30 30 29 29 29 29 29 29 29 29 30 30 29 29 29 29 29 29 28 28 28 28 28 28 28 28 28
30 30 30 29 29 29 29 29 30 30 30 30 30 30 30 30 31 31 31 31 30 30 30 30 30 30 30 31 31 30 30 30 30 30 30 30 30 30 29 29 29 29 29
31 31 30 29 29 29 29 29 29 30 30 30 30 30 29 30 30 30 31 31 31 31 31 31 31 31 30 31 31 31 31 32 32 32 31 31 32 31 31 31 31 31 31
31 30 30 30 30 30 30 30 30 29 30 30 30 29 29 29 30 30 31 31 31 31 31 31 31 31 31 31 31 31 32 32 33 33 33 33 33 33 33 33 33 33 32
30 30 30 31 31 30 30 30 30 30 29 29 29 29 29 29 30 31 31 30 30 31 31 32 32 32 32 32 32 32 32 33 33 34 34 35 35 35 35 35 35 35 34
31 30 30 30 30 30 29 29 30 30 30 31 31 31 30 30 30 31 31 31 31 31 31 31 32 32 32 32 33 33 34 34 34 35 35 36 36 36 36 36 36 36 36
30 30 30 30 30 30 30 31 31 31 31 32 32 31 31 31 31 31 32 31 31 32 32 32 33 33 33 34 34 34 34 34 35 35 36 36 36 37 37 37 37 38 38
30 30 30 30 31 31 32 32 32 32 32 32 32 32 32 32 33 34 34 33 33 33 33 33 33 34 34 34 34 34 34 34 35 35 36 36 36 37 37 38 38 39 39
30 31 31 31 32 32 32 33 33 33 33 32 32 32 33 34 34 34 34 34 33 33 33 34 34 34 35 35 35 35 35 35 35 36 36 37 37 38 38 39 39 39 39
32 32 32 33 33 33 33 33 33 33 33 32 32 32 33 33 34 34 33 33 33 33 33 34 34 35 35 35 35 35 36 36 36 36 36 36 36 37 38 38 39 39 39
33 33 34 34 34 34 34 34 34 34 34 33 33 33 34 34 34 34 34 34 34 34 34 35 36 36 35 35 35 34 34 35 35 36 36 37 37 38 38 39 39 39 39
34 34 35 35 35 35 34 35 35 35 34 34 34 34 34 34 34 34 34 34 34 34 34 35 34 34 34 34 34 34 34 35 35 36 37 37 37 38 38 39 39 40 40
34 35 35 35 35 35 35 35 34 34 34 34 34 33 33 34 34 34 34 34 34 34 34 34 33 33 33 33 33 33 33 34 34 35 35 36 37 37 38 38 39 40 40
35 35 35 35 35 34 34 34 34 33 34 34 34 34 34 34 34 34 34 33 33 33 33 32 32 32 32 32 32 32 32 33 33 34 34 34 34 35 35 36 37 37 38
35 35 35 34 34 33 33 33 33 33 33 33 33 33 34 34 34 34 34 33 33 33 32 32 31 31 31 32 32 32 32 32 33 33 34 33 33 33 34 34 35 35 36
35 35 34 33 32 32 32 32 32 32 32 32 32 33 33 33 33 32 32 32 31 32 32 32 32 31 31 31 31 31 31 32 32 33 33 33 33 33 33 33 34 34 34
Wind_Direction
294 293 292 293 294 294 294 293 293 294 294 296 293 292 292 291 289 287 285 283 282 279 277 276 276 275 274 275 276 275 274 274 275 273 270 269 267 265 263 263 263 261 259
293 292 291 292 292 292 292 291 290 292 293 294 295 294 293 292 290 289 288 284 281 279 277 276 276 275 274 274 275 276 276 276 275 273 270 267 267 266 262 261 260 261 261
293 293 292 291 291 291 291 290 289 290 291 292 294 294 292 292 291 289 288 284 281 279 278 277 275 275 273 274 274 274 275 276 275 274 273 269 267 264 263 260 259 259 260
293 292 292 290 289 290 290 290 289 289 289 289 291 291 291 291 290 288 287 285 282 280 278 276 275 274 274 273 272 273 274 275 274 273 273 271 267 265 263 261 259 259 260
292 291 290 290 290 290 290 288 287 287 286 287 288 289 289 289 288 287 286 285 282 281 279 277 275 274 272 272 271 271 273 275 274 272 272 272 270 267 264 261 259 259 260
291 291 292 291 290 288 287 286 285 284 284 285 286 287 288 288 288 287 286 285 283 280 278 276 274 272 271 271 270 270 271 273 274 273 273 272 270 268 264 261 260 259 259
291 291 291 291 290 288 286 285 284 283 282 283 284 285 286 288 289 289 287 285 284 282 278 275 273 272 271 269 269 270 270 272 272 272 272 271 268 266 264 261 260 258 258
291 290 290 290 289 287 284 283 282 282 281 281 282 283 284 285 287 287 287 285 284 282 278 274 273 272 271 270 270 270 270 270 271 270 270 269 267 266 264 261 260 259 258
290 289 288 289 288 286 284 282 282 282 281 280 280 281 282 283 284 285 285 284 283 282 279 275 273 272 272 271 270 269 270 270 270 268 267 266 265 265 264 262 261 261 260
291 290 289 288 288 287 285 284 284 283 281 280 279 280 282 283 284 284 283 283 283 281 279 276 275 273 272 273 271 268 269 269 269 268 265 266 265 264 264 263 262 261 260
292 292 290 290 289 289 287 286 285 285 284 283 282 282 282 282 283 283 282 281 281 280 278 276 275 273 273 272 271 269 269 268 268 267 265 266 266 265 265 264 262 261 261
291 291 290 291 290 289 288 287 285 284 284 284 284 283 282 281 281 281 281 280 279 279 278 276 275 275 274 272 270 269 268 267 267 266 265 265 266 266 265 265 263 262 262
291 290 289 289 290 290 288 288 286 285 285 285 284 283 283 281 281 281 281 280 279 278 277 276 275 275 273 271 270 269 268 267 266 266 265 264 265 265 264 264 264 263 263
291 290 289 288 289 288 288 289 288 287 286 285 284 284 283 282 281 281 281 281 279 278 277 276 275 274 273 272 271 269 268 267 266 266 265 264 264 264 264 264 264 263 263
292 290 289 288 289 289 289 289 288 287 287 286 285 284 282 282 281 281 281 280 279 278 277 276 275 273 273 272 271 269 269 268 267 266 266 265 265 264 264 265 265 264 262
292 291 290 289 289 289 289 288 288 287 286 285 285 284 282 282 282 283 283 282 281 279 277 276 275 274 273 273 272 271 270 269 268 267 266 266 266 265 265 265 265 264 263
292 291 290 290 290 290 289 288 287 287 288 286 285 284 284 283 284 284 283 282 281 279 278 277 277 276 275 275 273 272 271 270 269 268 268 267 266 265 266 265 264 263 263
292 292 291 291 291 290 289 288 287 287 287 286 285 284 285 284 284 284 283 282 280 279 279 279 278 277 276 275 275 273 272 271 270 270 269 268 267 266 266 265 265 265 264
292 292 292 292 291 291 290 288 287 287 287 285 284 285 286 285 284 285 284 283 281 279 279 279 279 278 277 277 275 274 272 271 270 270 270 269 268 267 266 266 266 266 265
293 293 294 293 291 291 290 289 287 288 288 286 285 285 285 286 285 286 285 283 280 280 280 280 279 279 278 278 277 275 272 271 270 270 269 269 268 268 267 266 266 266 266
293 293 293 293 292 290 289 289 288 288 288 287 287 286 285 286 286 286 285 284 282 282 281 280 279 279 278 277 275 274 273 272 270 270 269 269 268 268 268 267 267 267 267
293 293 293 293 292 291 290 288 288 288 286 286 286 287 287 287 287 287 286 285 284 283 282 280 279 278 277 276 275 274 273 272 272 271 271 270 269 269 268 268 268 267 267
293 294 294 293 292 292 291 291 289 289 288 287 287 287 288 288 287 287 286 285 284 282 281 280 279 277 276 277 276 275 275 275 274 273 273 272 271 271 270 270 269 268 268
294 294 294 294 292 291 291 291 291 290 289 288 287 288 288 288 288 287 285 284 284 283 281 280 278 277 276 276 276 276 276 276 275 275 273 274 273 272 271 270 270 269 269
294 294 294 294 293 292 292 292 291 290 290 289 289 289 288 288 288 288 286 285 284 283 282 280 279 278 278 277 277 276 276 276 277 277 275 275 274 274 272 271 270 270 269
293 293 293 293 292 292 293 293 292 292 291 291 291 291 290 289 288 288 287 285 284 284 282 280 279 278 277 276 276 276 276 277 278 277 276 275 274 273 273 272 271 270 270
Height
5806 5805 5803 5802 5800 5798 5796 5794 5792 5790 5788 5786 5785 5783 5781 5779 5778 5776 5775 5774 5773 5772 5771 5770 5769 5769 5768 5768 5767 5767 5766 5766 5766 5765 5765 5765 5765 5765 5765 5765 5765 5765 5765
5801 5799 5797 5795 5794 5792 5790 5788 5786 5784 5782 5781 5779 5777 5775 5773 5772 5770 5769 5768 5766 5765 5765 5764 5763 5763 5762 5762 5761 5761 5761 5760 5760 5760 5759 5759 5759 5759 5759 5759 5760 5760 5760
5795 5793 5791 5789 5787 5785 5783 5781 5780 5778 5776 5774 5772 5771 5769 5768 5766 5764 5763 5762 5760 5759 5759 5758 5758 5757 5757 5756 5756 5755 5755 5754 5754 5754 5754 5753 5754 5754 5754 5754 5754 5755 5755
5789 5787 5784 5782 5780 5778 5776 5774 5772 5771 5769 5768 5766 5765 5763 5761 5760 5758 5757 5756 5754 5753 5752 5752 5751 5751 5750 5750 5750 5749 5749 5749 5748 5748 5748 5747 5747 5747 5748 5748 5749 5749 5750
5782 5780 5777 5775 5772 5770 5768 5767 5765 5764 5762 5761 5760 5758 5756 5755 5753 5752 5750 5749 5748 5747 5746 5745 5745 5744 5744 5744 5744 5743 5743 5742 5742 5742 5742 5741 5741 5741 5741 5741 5742 5743 5743
5775 5773 5770 5767 5765 5763 5761 5759 5758 5756 5755 5754 5752 5751 5749 5747 5746 5744 5743 5742 5741 5740 5739 5738 5738 5737 5737 5737 5737 5737 5736 5736 5735 5735 5735 5735 5734 5734 5735 5735 5736 5736 5737
5767 5765 5762 5760 5757 5755 5753 5751 5750 5749 5747 5746 5745 5743 5742 5740 5739 5737 5736 5734 5733 5732 5731 5731 5730 5730 5730 5729 5729 5729 5729 5729 5729 5728 5728 5728 5728 5728 5728 5729 5729 5730 5730
5760 5757 5754 5752 5749 5747 5745 5743 5742 5740 5739 5738 5737 5736 5734 5733 5731 5729 5728 5726 5725 5724 5723 5723 5722 5722 5722 5722 5722 5721 5721 5721 5721 5721 5721 5721 5721 5720 5721 5721 5722 5722 5723
5752 5749 5746 5743 5741 5739 5737 5735 5733 5732 5731 5730 5729 5727 5726 5725 5723 5721 5719 5718 5717 5716 5715 5715 5714 5714 5714 5713 5713 5713 5713 5713 5713 5713 5713 5712 5713 5713 5713 5713 5714 5715 5716
5743 5741 5738 5735 5733 5730 5728 5726 5724 5723 5722 5721 5720 5718 5717 5716 5714 5712 5711 5710 5709 5708 5707 5706 5705 5705 5705 5704 5704 5704 5705 5705 5705 5704 5704 5704 5704 5705 5705 5705 5706 5707 5707
5735 5732 5729 5727 5724 5722 5720 5718 5716 5714 5712 5711 5710 5709 5707 5706 5705 5703 5702 5701 5700 5699 5698 5697 5696 5696 5695 5695 5695 5695 5695 5696 5696 5696 5696 5696 5696 5696 5697 5697 5698 5698 5699
5726 5724 5721 5718 5716 5714 5711 5709 5707 5705 5703 5702 5700 5699 5698 5696 5695 5694 5692 5691 5690 5690 5689 5688 5687 5686 5686 5685 5685 5685 5686 5686 5686 5686 5686 5687 5687 5687 5688 5688 5688 5689 5690
5718 5715 5713 5710 5708 5705 5703 5701 5699 5696 5694 5693 5691 5690 5688 5687 5686 5684 5683 5682 5680 5679 5679 5678 5677 5676 5676 5675 5675 5675 5675 5675 5676 5676 5677 5677 5678 5678 5678 5678 5679 5679 5680
5708 5706 5704 5701 5699 5697 5694 5692 5690 5688 5686 5684 5682 5680 5679 5677 5676 5675 5673 5672 5671 5669 5668 5668 5667 5666 5666 5665 5665 5665 5665 5665 5665 5666 5666 5667 5667 5667 5668 5668 5668 5669 5669
5699 5697 5695 5692 5690 5688 5685 5683 5681 5679 5677 5675 5673 5671 5670 5668 5666 5665 5663 5662 5660 5659 5658 5657 5657 5656 5655 5655 5655 5655 5654 5654 5655 5655 5655 5655 5656 5656 5657 5657 5658 5658 5659
5690 5688 5685 5683 5681 5679 5677 5674 5672 5670 5668 5665 5663 5662 5660 5658 5656 5655 5653 5651 5650 5649 5648 5647 5647 5646 5645 5644 5644 5644 5644 5643 5643 5644 5644 5644 5644 5645 5645 5646 5646 5647 5647
5681 5679 5677 5674 5672 5670 5667 5665 5663 5661 5658 5656 5654 5652 5650 5649 5647 5645 5644 5642 5640 5639 5638 5637 5636 5635 5634 5634 5633 5633 5632 5632 5632 5632 5632 5632 5632 5633 5633 5633 5634 5634 5635
5673 5670 5668 5665 5663 5661 5658 5656 5654 5651 5649 5647 5645 5642 5641 5639 5637 5635 5633 5632 5630 5629 5627 5626 5625 5624 5624 5623 5622 5621 5621 5620 5620 5620 5620 5620 5620 5620 5621 5621 5622 5622 5623
5664 5661 5659 5656 5654 5651 5648 5646 5643 5641 5639 5637 5635 5633 5631 5628 5627 5625 5622 5621 5619 5618 5617 5615 5614 5613 5612 5611 5610 5609 5609 5608 5608 5608 5608 5608 5608 5608 5608 5608 5609 5609 5610
5654 5651 5649 5646 5644 5641 5638 5636 5633 5631 5629 5627 5625 5623 5621 5618 5616 5614 5612 5610 5608 5607 5605 5604 5603 5601 5600 5599 5598 5597 5596 5596 5596 5595 5595 5595 5595 5595 5595 5596 5596 5596 5596
5644 5641 5639 5636 5633 5630 5628 5625 5623 5621 5618 5616 5614 5612 5610 5608 5606 5603 5601 5599 5597 5596 5594 5592 5591 5590 5588 5587 5586 5585 5584 5584 5583 5583 5583 5583 5583 5582 5583 5583 5583 5583 5583
5634 5631 5628 5625 5622 5619 5617 5615 5612 5610 5608 5606 5604 5601 5599 5597 5595 5593 5590 5588 5586 5584 5582 5581 5579 5578 5577 5575 5574 5573 5573 5572 5571 5571 5571 5570 5570 5570 5570 5570 5570 5570 5570
5623 5620 5617 5614 5611 5609 5606 5603 5601 5599 5597 5595 5593 5590 5588 5586 5584 5582 5579 5577 5575 5573 5571 5569 5568 5567 5565 5564 5563 5562 5561 5561 5560 5559 5559 5558 5558 5557 5557 5557 5557 5557 5557
5613 5610 5607 5604 5601 5598 5595 5593 5591 5588 5586 5584 5582 5579 5577 5575 5573 5570 5568 5566 5564 5562 5560 5558 5557 5556 5555 5554 5552 5551 5551 5550 5549 5548 5547 5547 5546 5545 5545 5544 5544 5544 5543
5602 5599 5596 5593 5590 5588 5585 5583 5580 5577 5575 5573 5571 5569 5566 5564 5561 5559 5557 5554 5552 5551 5549 5548 5546 5545 5544 5543 5542 5541 5540 5539 5538 5537 5536 5535 5535 5534 5533 5533 5532 5531 5531
5591 5588 5585 5582 5580 5577 5575 5572 5570 5567 5565 5563 5560 5558 5555 5553 5550 5548 5546 5544 5542 5540 5538 5537 5536 5535 5534 5533 5532 5530 5529 5528 5527 5526 5525 5524 5523 5522 5522 5521 5520 5519 5519